Flag for Benin Weather past 2 weeks in Porto Novo, Benin

Now
81 °F

Broken clouds.


Feels Like: 87 °F
Forecast: 74 / 85 °F
Wind: 16 mph from Southwest

Location: Cotonou Airport

Current Time: Jul 23, 2014 at 12:45:58 AM

Latest Report: Jul 22, 2014 at 5:00 PM


Visibility: 5 mi

Pressure: 29.92 "Hg

Humidity: 89%

Dew point: 77 °F

Location of Porto NovoLocation

Historic Weather in Porto Novo — Graph

°F

Porto Novo temperature yesterday

Maximum temperature yesterday: 81 °F (at 12:00 PM)
Minimum temperature yesterday: 77 °F (at 3:00 AM)
Average temperature yesterday: 79 °F

Past Weeks' High & Low Weather Summary

 TemperatureHumidityPressure
High86 °F (Jul 11, 2:00 PM)100% (Jul 8, 8:00 AM)30.07 "Hg (Jul 8, 8:00 AM)
Low73 °F (Jul 16, 2:00 AM)70% (Jul 8, 2:00 PM)29.83 "Hg (Jul 15, 5:00 PM)
Average80 °F91%29.95 "Hg
* Reported Jul 7 5:00 PM — Jul 22 5:00 PM, Porto Novo, Weather by CustomWeather, © 2014

Note: Actual official high and low records may vary slightly from our data, if they occured in-between our weather recording intervals... More about our weather records

Advertising

Porto Novo weather history for previous 24 hours

 ConditionsComfort  
Time TempWeatherWind HumidityBarometerVisibility
5:00 PM
Jul 22
81 °FBroken clouds.16 mph89%29.92 "Hg5 mi
4:00 PM81 °FBroken clouds.16 mph89%29.92 "Hg5 mi
3:00 PM81 °FPartly sunny.15 mph89%29.92 "Hg5 mi
2:00 PM81 °FLight rain. Partly sunny.15 mph94%29.95 "Hg4 mi
1:00 PM81 °FLight rain. Partly sunny.15 mph94%29.98 "Hg4 mi
12:00 PM81 °FPartly sunny.14 mph89%29.98 "Hg5 mi
11:00 AM79 °FPartly sunny.15 mph100%30.01 "Hg5 mi
10:00 AM79 °FLight rain. Partly sunny.14 mph100%30.01 "Hg5 mi
9:00 AM79 °FPartly sunny.12 mph94%30.01 "Hg5 mi
8:00 AM79 °FBroken clouds.12 mph94%29.98 "Hg5 mi
7:00 AM79 °FBroken clouds.12 mph94%29.95 "Hg5 mi
6:00 AM79 °FPassing clouds.13 mph94%29.95 "Hg5 mi
5:00 AM79 °FPartly cloudy.14 mph94%29.92 "Hg5 mi
4:00 AM79 °FPartly cloudy.13 mph94%29.92 "Hg5 mi
3:00 AM77 °FPartly cloudy.14 mph100%29.92 "Hg5 mi
2:00 AM79 °FPartly cloudy.12 mph94%29.95 "Hg5 mi
1:00 AM79 °FPartly cloudy.13 mph100%29.95 "Hg5 mi
12:00 AM79 °FPartly cloudy.13 mph94%29.98 "Hg5 mi
Weather by CustomWeather, © 2014

See weather overviewHow to use our weather pages